Flag for Canada Weather past 2 weeks in Drummondville, Quebec, Canada

Now
34 °F

Chilly.


Feels Like: 31 °F
Forecast: N/A
Wind: 3 mph from Southwest

Location: Nicolet

Current Time: Mar 27, 2015 at 5:24:37 PM

Latest Report: Mar 27, 2015 at 5:00 PM


Visibility: N/A

Pressure: 29.78 "Hg

Humidity: 50%

Dew point: 17 °F

Location of DrummondvilleLocation

Historic Weather in Drummondville — Graph

°F

Drummondville temperature yesterday

Maximum temperature yesterday: 40 °F (at 2:00 PM)
Minimum temperature yesterday: 34 °F (at 11:00 PM)
Average temperature yesterday: 37 °F

Past Weeks' High & Low Weather Summary

 TemperatureHumidityPressure
High40 °F (Mar 25, 5:00 PM)100% (Mar 21, 6:00 PM)30.64 "Hg (Mar 21, 6:00 PM)
Low0 °F (Mar 16, 7:00 AM)32% (Mar 19, 4:00 PM)29.45 "Hg (Mar 17, 11:00 AM)
Average21 °F68%30.05 "Hg
* Reported Mar 12 4:00 PM — Mar 27 4:00 PM, Drummondville, Weather by CustomWeather, © 2015

Note: Actual official high and low records may vary slightly from our data, if they occured in-between our weather recording intervals... More about our weather records

Advertising

Drummondville weather history for previous 24 hours

 ConditionsComfort  
Time TempWeatherWind HumidityBarometerVisibility
4:00 PM
Fri, Mar 27
33 °FChilly.5 mph58%29.78 "HgN/A
3:00 PM34 °FChilly.5 mph49%29.77 "HgN/A
2:00 PM32 °FChilly.6 mph58%29.78 "HgN/A
1:00 PM32 °FChilly.6 mph53%29.80 "HgN/A
12:00 PM31 °FChilly.6 mph55%29.80 "HgN/A
11:00 AM30 °FChilly.6 mph60%29.80 "HgN/A
10:00 AM29 °FChilly.8 mph61%29.79 "HgN/A
9:00 AM29 °FChilly.8 mph63%29.78 "HgN/A
8:00 AM31 °FChilly.5 mph77%29.77 "HgN/A
7:00 AM31 °FChilly.3 mph82%29.75 "HgN/A
6:00 AM31 °FChilly.3 mph83%29.73 "HgN/A
5:00 AM31 °FChilly.3 mph87%29.71 "HgN/A
4:00 AM30 °FChilly.6 mph96%29.71 "HgN/A
3:00 AM31 °FChilly.2 mph100%29.69 "HgN/A
2:00 AM33 °FChilly.3 mph95%29.69 "HgN/A
1:00 AM33 °FChilly.6 mph95%29.68 "HgN/A
12:00 AM34 °FChilly.5 mph90%29.70 "HgN/A
11:00 PM
Thu, Mar 26
34 °FChilly.3 mph92%29.69 "HgN/A
10:00 PM35 °FChilly.6 mph89%29.70 "HgN/A
9:00 PM35 °FChilly.3 mph87%29.72 "HgN/A
8:00 PM35 °FChilly.6 mph92%29.71 "HgN/A
7:00 PM36 °FChilly.8 mph90%29.69 "HgN/A
6:00 PM35 °FChilly.12 mph93%29.68 "HgN/A
5:00 PM38 °FChilly.13 mph78%29.69 "HgN/A
Weather by CustomWeather, © 2015

See weather overviewHow to use our weather pages